Sevilla, Spain

7:05 AM CEST on June 26, 2017 (GMT +0200)
San Pablo

Weather History for LEZL - December, 2012

Change the Weather History Date:

Saturday, December 22, 2012

  Actual Average Record
Temperature  
Mean Temperature 58 °F -  
Max Temperature 66 °F 59 °F 69 °F (2011)
Min Temperature 50 °F 42 °F 35 °F (1998)
Degree Days  
Heating Degree Days 7    
Growing Degree Days 8 (Base 50)    
Moisture  
Dew Point 53 °F    
Average Humidity 85    
Maximum Humidity 100    
Minimum Humidity 68    
Precipitation  
Precipitation 0.00 in - - ()
Sea Level Pressure  
Sea Level Pressure 30.26 in    
Wind  
Wind Speed 3 mph ()    
Max Wind Speed 13 mph    
Max Gust Speed -    
Visibility 5.7 miles    
Events      
Averages and records for this station are not official NWS values.
T = Trace of Precipitation, MM = Missing Value Source: Averaged Metar Reports

Daily Weather History Graph

Daily Weather History Graph

Search for Another Location

Airport or City:

Trip Planner

Search our weather history database for the weather conditions in past years. The results will help you decide how hot, cold, wet, or windy it might be!

Date:

Astronomy

Dec. 22, 2012 Rise Set
Actual Time 8:34 AM CET 6:09 PM CET
Civil Twilight 8:05 AM CET 6:39 PM CET
Nautical Twilight 7:32 AM CET 7:11 PM CET
Astronomical Twilight 7:01 AM CET 7:43 PM CET
Moon 2:16 PM CET (12/22) 3:10 AM CET (12/22)
Length of Visible Light 10h 33m
Length of Day
9h 34m
Waxing Gibbous, 71% of the Moon is Illuminated
Dec 22
Waxing Gibbous
Dec 28
Full
Jan 5
Last Quarter
Jan 11
New
Jan 19
First Quarter

Hourly Weather History & Observations

Time (CET) Temp. Dew Point Humidity Pressure Visibility Wind Dir Wind Speed Gust Speed Precip Events Conditions
12:00 AM 55.4 °F 53.6 °F 94% 30.30 in 5.0 mi Calm Calm - N/A   Mostly Cloudy
12:30 AM 55.4 °F 53.6 °F 94% 30.30 in 5.0 mi Calm Calm - N/A   Mostly Cloudy
1:00 AM 55.4 °F 53.6 °F 94% 30.30 in 6.2 mi Calm Calm - N/A   Mostly Cloudy
4:30 AM 57.2 °F 55.4 °F 94% 30.30 in 6.2 mi NE 2.3 mph - N/A   Mostly Cloudy
5:00 AM 57.2 °F 53.6 °F 88% 30.27 in 6.2 mi NNE 2.3 mph - N/A   Mostly Cloudy
5:30 AM 55.4 °F 51.8 °F 88% 30.27 in 6.2 mi NNE 2.3 mph - N/A   Scattered Clouds
6:00 AM 53.6 °F 51.8 °F 94% 30.27 in 6.2 mi NE 2.3 mph - N/A   Partly Cloudy
6:30 AM 51.8 °F 50.0 °F 94% 30.27 in - Calm Calm - N/A   Clear
7:00 AM 51.8 °F 51.8 °F 100% 30.27 in - Calm Calm - N/A   Clear
7:30 AM 51.8 °F 50.0 °F 94% 30.27 in - ENE 2.3 mph - N/A   Clear
8:00 AM 50.0 °F 50.0 °F 100% 30.27 in - Calm Calm - N/A   Clear
9:00 AM 50.0 °F 50.0 °F 100% 30.30 in - NE 1.2 mph - N/A   Clear
9:30 AM 51.8 °F 51.8 °F 100% 30.30 in - Calm Calm - N/A   Clear
10:00 AM 53.6 °F 51.8 °F 94% 30.30 in - NE 2.3 mph - N/A   Clear
10:30 AM 57.2 °F 53.6 °F 88% 30.30 in - NE 3.5 mph - N/A   Clear
11:00 AM 59.0 °F 53.6 °F 82% 30.30 in - NE 5.8 mph - N/A   Clear
11:30 AM 60.8 °F 53.6 °F 77% 30.30 in - NE 9.2 mph - N/A   Clear
12:00 PM 60.8 °F 53.6 °F 77% 30.30 in - ENE 9.2 mph - N/A   Clear
12:30 PM 62.6 °F 53.6 °F 72% 30.30 in - ENE 12.7 mph - N/A   Clear
1:00 PM 62.6 °F 53.6 °F 72% 30.27 in - ENE 11.5 mph - N/A   Clear
1:30 PM 64.4 °F 53.6 °F 68% 30.27 in - NE 11.5 mph - N/A   Clear
2:00 PM 64.4 °F 55.4 °F 73% 30.27 in - NE 10.4 mph - N/A   Clear
2:30 PM 64.4 °F 55.4 °F 73% 30.24 in - ENE 9.2 mph - N/A   Clear
3:00 PM 64.4 °F 55.4 °F 73% 30.24 in - NE 9.2 mph - N/A   Clear
3:30 PM 66.2 °F 55.4 °F 68% 30.21 in - ENE 9.2 mph - N/A   Clear
4:00 PM 66.2 °F 55.4 °F 68% 30.21 in - NE 8.1 mph - N/A   Clear
4:30 PM 66.2 °F 55.4 °F 68% 30.21 in - NE 8.1 mph - N/A   Clear
5:00 PM 66.2 °F 55.4 °F 68% 30.21 in - ENE 6.9 mph - N/A   Clear
5:30 PM 64.4 °F 55.4 °F 73% 30.21 in - ENE 4.6 mph - N/A   Clear
6:00 PM 62.6 °F 55.4 °F 77% 30.21 in - Variable 2.3 mph - N/A   Clear
6:30 PM 60.8 °F 53.6 °F 77% 30.21 in - NE 2.3 mph - N/A   Clear
7:00 PM 59.0 °F 53.6 °F 82% 30.21 in - NE 1.2 mph - N/A   Clear
7:30 PM 57.2 °F 53.6 °F 88% 30.21 in - NNE 1.2 mph - N/A   Clear
8:00 PM 57.2 °F 53.6 °F 88% 30.21 in - Calm Calm - N/A   Clear
8:30 PM 55.4 °F 53.6 °F 94% 30.21 in - NE 2.3 mph - N/A   Clear
9:00 PM 55.4 °F 51.8 °F 88% 30.24 in - ENE 2.3 mph - N/A   Clear
9:30 PM 53.6 °F 51.8 °F 94% 30.24 in - Calm Calm - N/A   Clear
10:00 PM 53.6 °F 51.8 °F 94% 30.24 in - NE 2.3 mph - N/A   Clear
10:30 PM 53.6 °F 51.8 °F 94% 30.24 in - North 2.3 mph - N/A   Clear
11:00 PM 51.8 °F 50.0 °F 94% 30.24 in 5.0 mi Calm Calm - N/A   Unknown
11:30 PM 51.8 °F 51.8 °F 100% 30.24 in 5.0 mi Calm Calm - N/A   Unknown